POLAR

Last updated on Mon Sep 21 2026 00:03:33 GMT+0000 (Coordinated Universal Time)

1 23802U 96013A 26263.54742183 .00000151 00000+0 00000+0 0 9992 2 23802 80.0102 225.9084 6559533 205.7781 96.7364 1.29845778146090
UTC large
Height (km)
Speed (km/s)
/
Latitude / Longitude
Inclination (degrees)
Orbital Period (minutes)
Azimuth
Elevation
Range (km)
Doppler Factor

Next 0 passes for location: London (51.5072 / 0.1276)

No passes found over London.
POLAR